JA3VQW-13 Weather Reports


time (UTC)temp
C
wind
direction
speed
KPH
gust
KPH
rain 1hr
cm
rain 24hr
cm
rain mn
cm
humidity
%
barometer
mb
20260505191129 15 225 0.0 0.0 0.00 0.00 0.00 49 1011.0
20260505190616 15 225 0.0 0.0 0.00 0.00 0.00 49 1011.0
20260505185631 15 225 0.0 0.0 0.00 0.00 0.00 49 1011.0
20260505184131 15 225 0.0 0.0 0.00 0.00 0.00 48 1011.0
20260505183616 15 225 0.0 0.0 0.00 0.00 0.00 48 1011.0
20260505182631 15 225 0.0 0.0 0.00 0.00 0.00 49 1011.0
20260505181131 15 225 0.0 0.0 0.00 0.00 0.00 46 1011.0
20260505180616 15 225 0.0 0.0 0.00 0.00 0.00 46 1012.0
20260505175630 15 225 0.0 0.0 0.00 0.00 0.00 45 1012.0
20260505174129 15 225 0.0 0.0 0.00 0.00 0.00 46 1012.0
20260505173615 15 225 0.0 0.0 0.00 0.00 0.00 45 1011.0
20260505172630 15 225 0.0 0.0 0.00 0.00 0.00 46 1011.0
20260505171130 15 225 0.0 0.0 0.00 0.00 0.00 46 1011.0
20260505170615 15 225 0.0 0.0 0.00 0.00 0.00 46 1012.0
20260505165630 15 225 0.0 0.0 0.00 0.00 0.00 46 1012.0
20260505164130 15 225 0.0 0.0 0.00 0.00 0.00 45 1012.0
20260505163616 15 225 0.0 0.0 0.00 0.00 0.00 43 1012.0
20260505162631 15 225 0.0 0.0 0.00 0.00 0.00 42 1012.0
20260505161131 16 225 0.0 0.0 0.00 0.00 0.00 41 1012.0
20260505160615 16 225 0.0 0.0 0.00 0.00 0.00 42 1012.0
20260505152629 16 225 0.0 0.0 0.00 0.00 0.00 43 1012.0
20260505151130 16 225 0.0 0.0 0.00 0.00 0.00 42 1012.0
20260505150615 16 225 0.0 0.0 0.00 0.00 0.00 42 1012.0
20260505140618 17 135 0.0 0.0 0.00 0.00 0.00 37 1012.0
20260505124132 18 270 0.0 0.0 0.00 0.00 0.00 33 1012.0
20260505123618 18 270 0.0 0.0 0.00 0.00 0.00 33 1012.0
20260505122632 18 270 0.0 0.0 0.00 0.00 0.00 33 1012.0
20260505121133 18 270 0.0 0.0 0.00 0.00 0.00 32 1012.0
20260505120618 18 270 0.0 0.0 0.00 0.00 0.00 32 1011.0
20260505115633 18 270 0.0 3.2 0.00 0.00 0.00 32 1011.0
20260505114133 18 270 0.0 0.0 0.00 0.00 0.00 30 1011.0
20260505113618 18 270 0.0 0.0 0.00 0.00 0.00 29 1011.0
20260505112633 18 270 0.0 0.0 0.00 0.00 0.00 27 1011.0
20260505111132 19 270 0.0 0.0 0.00 0.00 0.00 23 1011.0
20260505110617 19 270 0.0 0.0 0.00 0.00 0.00 24 1011.0
20260505101131 20 270 0.0 0.0 0.00 0.00 0.00 23 1010.0
20260505100618 20 270 0.0 0.0 0.00 0.00 0.00 24 1010.0
20260505095631 20 270 0.0 0.0 0.00 0.00 0.00 27 1010.0
20260505093618 21 135 4.8 9.7 0.00 0.00 0.00 25 1010.0
20260505091132 23 225 1.6 3.2 0.00 0.00 0.00 21 1009.0
20260505090617 23 259 3.2 3.2 0.00 0.00 0.00 21 1009.0
20260505085632 24 239 1.6 4.8 0.00 0.00 0.00 18 1009.0
20260505084132 25 152 1.6 3.2 0.00 0.00 0.00 15 1009.0
20260505083617 25 139 1.6 0.0 0.00 0.00 0.00 15 1010.0
20260505082632 26 315 3.2 4.8 0.00 0.00 0.00 15 1010.0
20260505081132 27 312 3.2 4.8 0.00 0.00 0.00 14 1010.0
20260505080619 27 270 1.6 8.0 0.00 0.00 0.00 14 1010.0
20260505075631 28 290 0.0 3.2 0.00 0.00 0.00 14 1010.0
20260505074132 29 315 3.2 4.8 0.00 0.00 0.00 13 1009.0
20260505073618 30 315 0.0 4.8 0.00 0.00 0.00 13 1009.0
20260505072631 30 315 0.0 3.2 0.00 0.00 0.00 13 1009.0
20260505071131 30 315 0.0 0.0 0.00 0.00 0.00 13 1009.0
20260505070619 30 315 0.0 0.0 0.00 0.00 0.00 13 1009.0
20260505065631 30 315 0.0 0.0 0.00 0.00 0.00 13 1009.0
20260505064131 28 315 1.6 4.8 0.00 0.00 0.00 13 1009.0
20260505063618 28 315 0.0 3.2 0.00 0.00 0.00 13 1009.0
20260505062631 30 296 1.6 8.0 0.00 0.00 0.00 13 1009.0
20260505061131 29 180 0.0 3.2 0.00 0.00 0.00 13 1009.0
20260505060618 28 180 0.0 0.0 0.00 0.00 0.00 14 1009.0
20260505054132 27 225 0.0 0.0 0.00 0.00 0.00 14 1009.0
20260505053617 27 225 0.0 0.0 0.00 0.00 0.00 14 1009.0
20260505052632 28 180 0.0 0.0 0.00 0.00 0.00 14 1009.0
20260505051132 28 180 0.0 3.2 0.00 0.00 0.00 14 1009.0
20260505050618 28 180 0.0 0.0 0.00 0.00 0.00 14 1009.0
20260505040618 25 225 0.0 3.2 0.00 0.00 0.00 15 1010.0
20260505033618 23 225 0.0 3.2 0.00 0.00 0.00 16 1010.0
20260505030617 22 140 3.2 0.0 0.00 0.00 0.00 16 1010.0
20260505025630 22 225 0.0 0.0 0.00 0.00 0.00 16 1010.0
20260505024131 21 225 0.0 3.2 0.00 0.00 0.00 17 1011.0
20260505023618 21 180 0.0 0.0 0.00 0.00 0.00 17 1011.0
20260505022631 20 270 0.0 0.0 0.00 0.00 0.00 20 1011.0
20260505021131 20 270 0.0 0.0 0.00 0.00 0.00 20 1011.0
20260505020618 20 270 0.0 0.0 0.00 0.00 0.00 20 1011.0
20260505015630 19 270 0.0 0.0 0.00 0.00 0.00 20 1011.0
20260505013616 18 270 0.0 0.0 0.00 0.00 0.00 23 1012.0
20260505012631 18 180 0.0 0.0 0.00 0.00 0.00 23 1012.0
20260505011131 17 270 0.0 0.0 0.00 0.00 0.00 24 1012.0
20260505010618 17 270 0.0 0.0 0.00 0.00 0.00 24 1012.0
20260505005632 17 270 0.0 0.0 0.00 0.00 0.00 25 1012.0
20260505004132 16 315 0.0 0.0 0.00 0.00 0.00 27 1012.0
20260505003617 16 315 0.0 0.0 0.00 0.00 0.00 28 1012.0
20260505002632 16 315 0.0 0.0 0.00 0.00 0.00 29 1012.0
20260505001131 16 180 0.0 0.0 0.00 0.00 0.00 28 1012.0
20260505000616 16 180 0.0 0.0 0.00 0.00 0.00 28 1012.0
20260504235630 15 180 0.0 3.2 0.00 0.00 0.00 32 1012.0
20260504234130 15 180 0.0 0.0 0.00 0.00 0.00 34 1012.0
20260504233617 15 180 0.0 0.0 0.00 0.00 0.00 35 1012.0
20260504232631 15 180 0.0 0.0 0.00 0.00 0.00 36 1012.0
20260504231131 14 180 0.0 0.0 0.00 0.00 0.00 39 1012.0
20260504230616 13 180 0.0 0.0 0.00 0.00 0.00 39 1012.0
20260504225631 13 135 0.0 0.0 0.00 0.00 0.00 41 1012.0
20260504224130 13 135 0.0 0.0 0.00 0.00 0.00 45 1012.0
20260504223616 13 135 0.0 0.0 0.00 0.00 0.00 45 1012.0
20260504222632 13 135 0.0 0.0 0.00 0.00 0.00 46 1012.0
20260504221131 12 135 0.0 0.0 0.00 0.00 0.00 48 1011.0
20260504220616 12 135 0.0 0.0 0.00 0.00 0.00 48 1012.0
20260504215631 12 135 0.0 0.0 0.00 0.00 0.00 49 1012.0
20260504214130 11 135 0.0 0.0 0.00 0.00 0.00 53 1011.0
20260504213617 11 135 0.0 0.0 0.00 0.00 0.00 54 1012.0
20260504212632 11 135 0.0 0.0 0.00 0.00 0.00 56 1012.0
20260504211131 11 135 0.0 0.0 0.00 0.00 0.00 58 1011.0
20260504210616 11 135 0.0 0.0 0.00 0.00 0.00 59 1010.0
20260504205631 10 135 0.0 0.0 0.00 0.00 0.00 58 1010.0
20260504204130 10 135 0.0 0.0 0.00 0.00 0.00 58 1010.0
20260504203617 10 135 0.0 0.0 0.00 0.00 0.00 59 1010.0
20260504202630 10 135 0.0 0.0 0.00 0.00 0.00 60 1010.0
20260504201129 10 135 0.0 0.0 0.00 0.00 0.00 61 1010.0
20260504200617 10 135 0.0 0.0 0.00 0.00 0.00 60 1009.0
20260504195631 10 135 0.0 0.0 0.00 0.00 0.00 60 1009.0
20260504194129 10 135 0.0 0.0 0.00 0.00 0.00 59 1009.0
20260504193616 10 135 0.0 0.0 0.00 0.00 0.00 58 1009.0
20260504192631 10 135 0.0 0.0 0.00 0.00 0.00 57 1009.0